Notices

What's New in latest Release from April 7th, 2021:

- Updated Glossary, including Speed of Maximum Gust, and Total Hourly Precipitation

- Updated national and regional climate services offices contacts and prices information

- Addition of station inventory lists for 1981-2010, 1971-2000, and 1961-1990 Normals.

If you haven't already, please take our survey and provide feedback about our website: https://eccc.sondage-survey.ca/f/LanguageSelection.aspx?s=442ca660-fcf1-47c0-95a9-59707d6fd709

Hourly Data Report for April 04, 2019

MIRAMICHI RCS
NEW BRUNSWICK
Current Station Operator: ECCC - MSC

47°00'34.000" N
65°27'54.000" W
33.00 m
8100989
71744
ACQ

Download Data

Hourly Data (April 2019)
Hourly Data Report for April 4, 2019
TIME
LST
Temp Definition
°C
Dew Point Definition
°C
Rel Hum Definition
%
Precip. Amount Definition
mm

Wind Dir Definition
10's deg

Wind Spd Definition
km/h
Visibility Definition
km
Stn Press Definition
kPa
Hmdx Definition


Wind Chill Definition


Weather Definition


00:00 -1.9 -3.0 92 0.0 24 25   99.10   -8 LegendNANA
01:00 -0.9 -2.2 91 0.0 25 23   99.13   -7 LegendNANA
02:00 0.4 -1.5 87 0.0 25 34   99.18     LegendNANA
03:00 0.5 -2.2 82 0.2 27 35   99.33     LegendNANA
04:00 -0.1 -4.1 74 0.0 27 32   99.47   -7 LegendNANA
05:00 -0.4 -4.0 77 0.0 25 28   99.53   -7 LegendNANA
06:00 -0.7 -4.6 75 0.0 25 26   99.61   -7 LegendNANA
07:00 -1.1 -6.0 69 0.0 25 29   99.73   -8 LegendNANA
08:00 -1.3 -6.5 68 0.0 26 35   99.78   -9 LegendNANA
09:00 -1.2 -9.1 55 0.0 27 36   99.84   -9 LegendNANA
10:00 -0.7 -10.2 49 0.6 27 37   99.88   -8 LegendNANA
11:00 -0.7 -10.3 48 0.0 26 42   99.93   -8 LegendNANA
12:00 -1.0 -11.0 47 0.0 26 48   99.95   -9 LegendNANA
13:00 -0.4 -10.5 46 0.0 27 43   99.98   -8 LegendNANA
14:00 -0.1 -11.7 41 0.0 27 49   100.03   -8 LegendNANA
15:00 -0.4 -11.6 42 0.0 28 38   100.11   -8 LegendNANA
16:00 -0.8 -12.3 41 0.0 27 45   100.16   -9 LegendNANA
17:00 -1.2 -12.1 43 0.0 27 33   100.25   -8 LegendNANA
18:00 -1.4 -12.7 42 0.0 27 36   100.37   -9 LegendNANA
19:00 -2.2 -12.4 45 0.0 28 40   100.53   -10 LegendNANA
20:00 -3.1 -12.1 50 0.0 28 39   100.71   -11 LegendNANA
21:00 -3.9 -12.5 51 0.0 28 36   100.79   -12 LegendNANA
22:00 -4.3 -13.1 50 0.0 29 29   100.89   -12 LegendNANA
23:00 -4.6 -12.8 53 0.0 29 29   100.95   -12 LegendNANA

Notes on Data Quality.

Legend

  • E = Estimated
  • M = Missing
  • NA = Not Available*
  • [empty] = Indicates an unobserved value
Date modified: